DW2468 Weather Reports


time (UTC)temp
C
wind
direction
speed
KPH
gust
KPH
rain 1hr
cm
rain 24hr
cm
rain mn
cm
humidity
%
barometer
mb
20260503181551 22 348 1.6 9.7 0.00 0.00 0.00 55 1011.3
20260503180042 22 19 3.2 9.7 0.00 0.00 0.00 56 1011.4
20260503174538 21 37 1.6 9.7 0.00 0.00 0.00 57 1011.7
20260503173036 21 96 4.8 12.9 0.00 0.00 0.00 59 1011.8
20260503171537 20 36 4.8 12.9 0.00 0.00 0.00 63 1012.0
20260503081521 11 225 0.0 0.0 0.00 0.03 0.00 90 1012.0
20260503071514 12 225 0.0 0.0 0.00 0.03 0.00 88 1012.0
20260503054516 13 225 1.6 4.8 0.00 0.03 0.03 84 1011.3
20260503053005 13 225 3.2 4.8 0.00 0.03 0.03 84 1011.4
20260503051504 14 225 4.8 6.4 0.00 0.03 0.03 82 1011.4
20260503050003 15 225 1.6 3.2 0.00 0.03 0.03 82 1011.4
20260503044508 15 225 0.0 3.2 0.00 0.03 0.03 81 1011.4
20260503043002 15 225 0.0 0.0 0.00 0.03 0.03 79 1011.5
20260503041502 16 225 0.0 6.4 0.00 0.03 0.03 78 1011.3
20260503040001 16 171 1.6 6.4 0.00 0.03 0.03 77 1011.1
20260503034502 17 229 4.8 9.7 0.00 0.03 0.03 76 1010.9
20260503033100 17 213 1.6 4.8 0.00 0.03 0.03 74 1010.8
20260503031600 18 221 1.6 6.4 0.00 0.03 0.03 72 1010.6
20260503030103 19 221 1.6 3.2 0.00 0.03 0.03 69 1010.7
20260503024559 20 222 3.2 8.0 0.00 0.03 0.03 67 1010.5
20260503023106 21 218 4.8 9.7 0.00 0.03 0.03 64 1010.7
20260503021601 21 219 3.2 8.0 0.00 0.03 0.03 63 1010.7
20260503020058 22 188 3.2 8.0 0.00 0.03 0.03 61 1010.8
20260503014554 23 225 1.6 11.3 0.00 0.03 0.03 54 1010.8
20260503013056 24 254 1.6 8.0 0.00 0.03 0.03 51 1010.9
20260503011612 24 234 1.6 8.0 0.00 0.03 0.03 53 1011.1
20260503010056 24 213 6.4 11.3 0.00 0.03 0.03 51 1011.2
20260503004551 24 222 6.4 11.3 0.00 0.03 0.03 54 1011.2
20260503003048 24 211 8.0 16.1 0.00 0.03 0.03 53 1011.2
20260503001548 25 213 6.4 11.3 0.00 0.03 0.03 53 1011.3
20260502234558 24 221 9.7 14.5 0.00 0.03 0.03 52 1011.4
20260502233043 24 221 1.6 14.5 0.00 0.03 0.03 54 1011.6
20260502231541 23 210 9.7 17.7 0.00 0.03 0.03 53 1011.9
20260502230038 23 203 1.6 16.1 0.00 0.03 0.03 55 1012.0
20260502224536 23 220 3.2 12.9 0.00 0.03 0.03 57 1012.2
20260502223033 23 239 3.2 12.9 0.00 0.03 0.03 57 1012.4
20260502221532 23 225 3.2 19.3 0.00 0.03 0.03 57 1012.6
20260502220028 23 248 9.7 17.7 0.00 0.03 0.03 60 1012.6
20260502214525 23 335 9.7 20.9 0.00 0.03 0.03 60 1012.8
20260502213023 22 236 8.0 17.7 0.00 0.03 0.03 60 1012.9
20260502211531 22 248 11.3 17.7 0.00 0.03 0.03 62 1013.3
20260502210021 22 210 9.7 22.5 0.00 0.03 0.03 64 1013.3
20260502204522 22 283 8.0 17.7 0.00 0.03 0.03 63 1013.5
20260502203019 22 19 9.7 19.3 0.00 0.03 0.03 64 1013.6
20260502201519 22 345 9.7 14.5 0.00 0.03 0.03 64 1013.6
20260502200018 23 250 4.8 14.5 0.00 0.03 0.03 65 1013.7
20260502194515 22 173 1.6 11.3 0.00 0.03 0.03 59 1013.7
20260502193012 22 269 4.8 11.3 0.00 0.03 0.03 59 1014.0
20260502191509 22 11 6.4 11.3 0.00 0.03 0.03 64 1013.9
20260502190005 21 326 1.6 17.7 0.00 0.03 0.03 66 1013.9
20260502184502 21 340 6.4 17.7 0.00 0.03 0.03 65 1013.9
20260502183001 20 27 4.8 14.5 0.00 0.03 0.03 68 1014.1